{"data":{"norad_id":63752,"intl_designator":"2025-089B","name":"STARLINK-11702 [DTC]","alt_names":[],"object_type":"PAYLOAD","status":"ACTIVE","operator":null,"country":"US","launch_date":"2025-04-29","launch_site_code":"AFETR","launch_vehicle":null,"mission":null,"orbit_class":"UNKNOWN","rcs_meters":null,"size_class":null,"mass_kg":null,"dimensions":null,"purposes":["comms"],"wikipedia_slug":null,"has_3d_model":false,"image_url":null,"decayed_at":null,"tle_current":{"epoch":"2026-09-19T23:36:55.684512Z","epoch_age_seconds":194272,"freshness":"STALE","line1":"1 63752U 25089B   26262.98397783  .00146693  00000+0  11277-2 0  9997","line2":"2 63752  43.0001 201.0385 0001433 235.2945 124.7788 15.70816764 80698","mean_motion":15.70816764,"eccentricity":0.0001433,"inclination_deg":43.0001,"raan_deg":201.0385,"arg_perigee_deg":235.2945,"mean_anomaly_deg":124.7788,"bstar":0.0011277,"rev_number":8069,"period_min":91.672054500686,"perigee_km":355.59639293242,"apogee_km":357.52655751542,"semimajor_km":6734.6984752239,"source":"CELESTRAK","updated_at":"2026-09-21T09:00:35.092586Z"}}}